TimeCDT,TemperatureF,Dew PointF,Humidity,Sea Level PressureIn,VisibilityMPH,Wind Direction,Wind SpeedMPH,Gust SpeedMPH,PrecipitationIn,Events,Conditions,WindDirDegrees,DateUTC
12:53 AM,43.0,37.9,82,29.87,10.0,NW,9.2,-,N/A,,Overcast,310,2013-04-11 05:53:00
1:18 AM,42.1,37.9,85,29.90,10.0,NW,8.1,-,N/A,,Overcast,310,2013-04-11 06:18:00
1:53 AM,42.1,37.9,85,29.90,10.0,NNW,3.5,-,N/A,,Overcast,330,2013-04-11 06:53:00
2:53 AM,42.1,37.0,82,29.88,10.0,WNW,9.2,-,N/A,,Overcast,300,2013-04-11 07:53:00
3:05 AM,41.0,37.0,86,29.88,10.0,NW,11.5,-,N/A,,Overcast,320,2013-04-11 08:05:00
3:17 AM,41.0,37.0,86,29.88,10.0,NW,10.4,-,N/A,,Overcast,310,2013-04-11 08:17:00
3:53 AM,41.0,36.0,82,29.88,10.0,NW,11.5,-,N/A,,Overcast,310,2013-04-11 08:53:00
4:00 AM,39.9,36.0,86,29.87,10.0,NW,9.2,-,N/A,,Overcast,310,2013-04-11 09:00:00
4:25 AM,39.0,35.1,86,29.87,10.0,NW,13.8,19.6,N/A,,Scattered Clouds,310,2013-04-11 09:25:00
4:53 AM,37.9,34.0,86,29.85,10.0,NNW,5.8,-,N/A,,Clear,330,2013-04-11 09:53:00
5:53 AM,36.0,34.0,93,29.85,10.0,North,3.5,-,N/A,,Clear,350,2013-04-11 10:53:00
6:53 AM,37.9,32.0,79,29.87,10.0,Calm,Calm,-,N/A,,Clear,0,2013-04-11 11:53:00
7:53 AM,37.9,34.0,86,29.91,10.0,West,13.8,-,N/A,,Mostly Cloudy,270,2013-04-11 12:53:00
8:53 AM,39.0,33.1,79,29.85,10.0,WNW,8.1,-,0.00,Rain,Light Rain,300,2013-04-11 13:53:00
9:53 AM,41.0,34.0,76,29.86,10.0,NW,6.9,-,0.00,,Clear,310,2013-04-11 14:53:00
10:53 AM,45.0,35.1,68,29.88,10.0,WNW,8.1,-,N/A,,Clear,290,2013-04-11 15:53:00
12:53 PM,51.1,35.1,54,29.84,10.0,NW,11.5,-,N/A,,Clear,320,2013-04-11 17:53:00
1:53 PM,55.9,36.0,47,29.82,10.0,WNW,8.1,-,N/A,,Clear,290,2013-04-11 18:53:00
2:53 PM,59.0,35.1,41,29.80,10.0,WSW,8.1,-,N/A,,Clear,250,2013-04-11 19:53:00
3:53 PM,61.0,34.0,36,29.77,10.0,West,11.5,-,N/A,,Clear,280,2013-04-11 20:53:00
4:53 PM,63.0,34.0,34,29.74,10.0,WNW,11.5,-,N/A,,Clear,300,2013-04-11 21:53:00
5:53 PM,62.1,32.0,32,29.75,10.0,West,9.2,18.4,N/A,,Clear,280,2013-04-11 22:53:00
6:53 PM,60.1,32.0,35,29.76,10.0,NW,9.2,-,N/A,,Clear,310,2013-04-11 23:53:00
7:53 PM,54.0,37.9,55,29.78,10.0,West,8.1,-,N/A,,Clear,260,2013-04-12 00:53:00
8:53 PM,50.0,37.9,63,29.81,10.0,SW,4.6,-,N/A,,Clear,230,2013-04-12 01:53:00
9:53 PM,48.9,37.9,66,29.84,10.0,West,3.5,-,N/A,,Clear,260,2013-04-12 02:53:00
10:53 PM,46.9,37.9,71,29.85,10.0,Calm,Calm,-,N/A,,Clear,0,2013-04-12 03:53:00
11:53 PM,42.1,39.0,89,29.85,10.0,Calm,Calm,-,N/A,,Clear,0,2013-04-12 04:53:00